Regional Weather Roundup
Issued by NWS Grand Forks, ND

Home | Current Version | Previous Version | Graphics & Text | Print | Product List | Glossary On
Versions: 1 2 3 4 5 6 7 8 9 10 11 12 13 14 15 16 17 18 19 20 21 22 23 24 25 26 27 28 29 30 31 32 33 34 35 36 37 38 39 40 41 42 43 44 45 46 47 48 49 50
000
ASUS43 KFGF 260310
RWRFGF
PRAIRIE TO PINES  WEATHER ROUNDUP
NATIONAL WEATHER SERVICE EASTERN NORTH DAKOTA/GRAND FORKS ND
1000 PM CDT MON MAY 25 2015

 **SATELLITE DATA USED TO AUGMENT SKY COVER AT AUTOMATED STATIONS**
 *****  WEATHER ACROSS EASTERN NORTH DAKOTA  *****

CITY           SKY/WX    TMP DP  RH WIND       PRES   REMARKS
GRAND FORKS    PTCLDY    59  49  69 S8        29.79R
GRAND FRKS AFB PTCLDY    62  48  59 SW9       29.80R
GRAND FRKS NWS   N/A     59 N/A N/A S3          N/A
DEVILS LAKE    PTCLDY    64  45  48 CALM      29.79R
FARGO          PTCLDY    57  53  86 CALM      29.82S
WAHPETON ARPT  CLEAR     55  50  82 N8        29.82R
$$

 ***** WEATHER ACROSS CENTRAL AND WESTERN NORTH DAKOTA  *****

CITY           SKY/WX    TMP DP  RH WIND       PRES   REMARKS
BISMARCK       PTCLDY    61  54  77 SW6       29.86R
MINOT          CLEAR     67  45  45 SW9       29.81R
JAMESTOWN      CLEAR     61  55  81 S10       29.82S
MINOT AFB      CLEAR     64  47  55 W7        29.80R
GARRISON         N/A     63  52  67 W10       29.84S
WILLISTON      PTCLDY    59  48  67 SW8       29.88R
DICKINSON      CLEAR     53  45  74 SW8       29.89R
HETTINGER      CLOUDY    56  50  80 CALM      29.93R
$$

 *****  OTHER AIRPORT OBSERVATIONS IN OUR AREA  *****

CITY           SKY/WX    TMP DP  RH WIND       PRES   REMARKS
WALHALLA         N/A     70  45  40 CALM      29.77R
GRAFTON AIRPOR FAIR      66  55  68 S14       29.79R
VALLEY CITY AR FAIR      57  57 100 SW6       29.83S
CANDO          CLOUDY    66  45  45 N13       29.80R
CAVALIER APRT  FAIR      68  50  52 S10       29.77R
GWINNER        NOT AVBL
ROLLA          CLOUDY    68  41  37 NE14      29.81S
 ***** THE ABOVE OBSERVATIONS ARE NON NWS ARE NOT QUALITY
       CONTROLLED AND MAY MIS-REPORT RAIN FOR SNOW...
$$

  *****  WEATHER ACROSS NORTHERN MINNESOTA  *****

CITY           SKY/WX    TMP DP  RH WIND       PRES   REMARKS
FLAG ISLAND    CLOUDY    59  55  88 S10       29.77R
WARROAD        MOCLDY    63  54  72 S5        29.80R
ROSEAU         MOCLDY    63  54  72 S8        29.79R
HALLOCK        PTCLDY    66  52  59 S13       29.77R
THF RVR FALLS  MOCLDY    61  52  72 SE8       29.82S
BAUDETTE       CLOUDY    59  51  75 S7        29.81R
WASKISH        CLOUDY    55  52  88 CALM      29.83R
CROOKSTON      PTCLDY    61  54  77 S10       29.82R
STEPHEN NDAWN    N/A     63  52  67 S8          N/A
GREENBUSH NDAW   N/A     61  54  77 S6          N/A
$$
  *****  WEATHER ACROSS CENTRAL AND WEST MINNESOTA  *****

CITY           SKY/WX    TMP DP  RH WIND       PRES   REMARKS
FOSSTON        CLOUDY    54  50  87 CALM      29.83S
BEMIDJI        CLOUDY    54  52  94 CALM      29.81F
PARK RAPIDS    CLOUDY    56  51  84 NE7       29.80R
ELBOW LAKE     FAIR      57  51  80 N14       29.78S
WADENA         CLOUDY    55  52  88 NE10G16   29.79R
DETROIT LAKES  CLOUDY    55  52  88 CALM      29.83R
MOORHEAD       PTCLDY    57  52  82 NE3       29.83R
FERGUS FALLS   CLEAR     57  52  82 E7        29.81R
MORRIS MN      CLOUDY    57  52  82 N12       29.79R
STAPLES        CLOUDY    55  52  88 N9        29.78R
$$
  *****  WEATHER ELSEWHERE ACROSS MINNESOTA  *****

CITY           SKY/WX    TMP DP  RH WIND       PRES   REMARKS
DULUTH         CLOUDY    51  49  92 NE5       29.77R FOG
INTRNTL FALLS  CLOUDY    54  52  93 CALM      29.81R
ELY            LGT RAIN  54  52  94 NE5       29.80R
CLOQUET        CLOUDY    50  48  93 CALM      29.77R
WHEATON        CLEAR     54  52  94 N5        29.81F
BRAINERD       CLOUDY    55  54  96 NE12      29.77R
HIBBING        LGT RAIN  54  50  86 N7        29.78R
ALEXANDRIA     CLOUDY    57  51  80 NE18G25   29.78R
SAINT CLOUD    MOCLDY    61  56  83 SW8       29.74R
MINNEAPOLIS    PTCLDY    67  58  72 SW5       29.75R
$$

  *****  WEATHER ACROSS SOUTH DAKOTA  *****

CITY           SKY/WX    TMP DP  RH WIND       PRES   REMARKS
SIOUX FALLS    PTCLDY    59  57  93 NE3       29.77R
BROOKINGS      PTCLDY    57  54  88 N13       29.82R
WATERTOWN      PTCLDY    55  51  86 NE9       29.81R
HURON          CLEAR     55  50  83 E6        29.82R
SISSETON         N/A     55  52  89 N8        29.80R
ABERDEEN       CLEAR     58  50  75 N6        29.83R
MITCHELL       MOCLDY    58  54  86 N9        29.80R
PIERRE         CLOUDY    58  52  80 N6        29.85R
MOBRIDGE       PTCLDY    56  56 100 N7        29.85R
RAPID CITY     CLOUDY    53  51  93 N7        29.92R
$$

  *****  SOME WEATHER IN NEARBY STATES *****

CITY           SKY/WX    TMP DP  RH WIND       PRES   REMARKS
GLASGOW MT     CLEAR     62  46  55 E8        29.85R
GREAT FALLS MT CLOUDY    60  46  59 NE7       29.83S
CHEYENNE WY    MOCLDY    49  41  74 NW6       29.99R
SCOTTSBLUFF NE MOCLDY    51  50  96 NW5       29.91R
OMAHA NE       CLOUDY    66  60  81 S10       29.80R
DES MOINES IA  TSTM      65  59  81 SW20G30   29.86R
DAVENPORT IA   PTCLDY    71  61  70 S12       29.90R
CHICAGO IL     PTCLDY    73  59  61 S8        29.93R
EAU CLAIRE WI  CLOUDY    64  62  93 S5        29.76S
LA CROSSE WI   PTCLDY    66  63  90 S6        29.79R
$$

  *****  SOME NATIONAL WEATHER *****

CITY           SKY/WX    TMP DP  RH WIND       PRES   REMARKS
LA GUARDIA NY  PTCLDY    71  56  58 S14       30.19R
RALEIGH NC     PTCLDY    72  59  63 S8        30.28R
ATLANTA GA     CLOUDY    69  66  90 E7        30.20S
NEW ORLEANS LA CLOUDY    75  69  81 E7        30.04R
OKLAHOMA CITY  CLOUDY    61  57  87 CALM      29.84R
ALBUQUERQUE NM MOCLDY    57  49  74 SE8       30.06R
SALT LAKE CITY CLOUDY    66  44  45 N3        29.94R
LOS ANGELES CA PTCLDY    60  56  86 W12       29.97R
BOISE ID       LGT RAIN  62  51  67 N15       29.89R
SEATTLE WA     CLOUDY    58  50  75 S3        30.02R
$$

*** WEATHER ACROSS MANITOBA...SASKATCHEWAN AND ONTARIO ***
                ***ONTARIO***

CITY           SKY/WX    TMP DP  RH WIND       PRES   REMARKS
GERALDTON      LGT RAIN  55  54  94 E6        29.81S
THUNDER BAY    LGT RAIN  55  54  94 N6        29.76R
SIOUX LOOKOUT  MOCLDY    61  52  72 S7        29.78R
TORONTO        MOCLDY    75  61  60 SW21G28   29.96R
BIG TROUT LK   CLEAR     59  43  55 E6        29.75S
PICKLE LAKE    NOT AVBL
DRYDEN         CLOUDY    63  52  67 S10       29.78R
KENORA         MOCLDY    63  50  63 S9        29.78R
$$
                *** MANITOBA***

CITY           SKY/WX    TMP DP  RH WIND       PRES   REMARKS
BRANDON        MOCLDY    70  43  37 N5        29.77S
DAUPHIN        MOCLDY    70  45  40 S5        29.74F
ISLAND LAKE    PTCLDY    66  37  34 SE6       29.69S
PILOT MOUND      N/A     68  39  34 SW3         N/A
THE PAS        CLOUDY    66  41  39 S9        29.67
THOMPSON       LGT RAIN  52  37  58 NE22G38   29.70R
WINNIPEG       PTCLDY    70  45  40 S8        29.74R
LYNN LAKE      CLOUDY    45  36  70 NE13G21   29.82R
CHURCHILL      CLOUDY    27  21  80 NE13      30.04R WCI  16
GILLAM         PTCLDY    39  32  75 NE10G24   29.82R
$$
                ***SASKATCHEWAN***

CITY           SKY/WX    TMP DP  RH WIND       PRES   REMARKS
ESTEVAN        MOCLDY    66  46  48 CALM      29.83S
KINDERSLEY     MOCLDY    70  34  26 NW6       29.84R
LLOYDMINSTER   MOCLDY    70  34  26 NE3       29.82S
PRINCE ALBERT  CLOUDY    61  46  59 W3        29.76S
REGINA         MOCLDY    68  37  32 SW7       29.83R
YORKTON        CLEAR     66  43  42 W10       29.79R
N. BATTLEFORD  CLEAR     59  41  51 NE5       29.82S
LA RONGE       CLOUDY    61  54  77 W3        29.72F
SASKATOON      PTCLDY    68  41  37 E2        29.82R
SWIFT CURRENT  PTCLDY    66  36  32 SE5       29.85S
$$
NOTE: THESE ARE AUTOMATED STATIONS WITH LIMITED QUALITY CONTROL
      "FAIR" INDICATES FEW OR NO CLOUDS BELOW 12,000 FEET WITH NO
      SIGNIFICANT WEATHER AND/OR OBSTRUCTIONS TO VISIBILITY.
      SKY/WX - SKY CONDITION AND SIGNIFICANT WEATHER.
      TMP - AIR TEMPERATURE.    DP   - DEWPOINT TEMPERATURE.
      RH  - RELATIVE HUMIDITY.  PRES - PRESSURE.
      HX  - HEAT INDEX.         WCI  - WIND CHILL INDEX.
$


USA.gov is the U.S. government's official web portal to all federal, state and local government web resources and services.